Ashland, ME

1:47 AM EDT on September 30, 2016 (GMT -0400)
Clayton Lake

Weather History for K40B - February, 2013

Change the Weather History Date:

Saturday, February 9, 2013

  Actual Average Record
Temperature  
Mean Temperature 6 °F -  
Max Temperature 10 °F 22 °F 35 °F (2005)
Min Temperature 3 °F -6 °F -16 °F (1999)
Degree Days  
Heating Degree Days 58    
Moisture  
Dew Point 0 °F    
Average Humidity 73    
Maximum Humidity 87    
Minimum Humidity 55    
Precipitation  
Precipitation 0.11 in - - ()
Sea Level Pressure  
Sea Level Pressure 30.21 in    
Wind  
Wind Speed 6 mph (North)    
Max Wind Speed 10 mph    
Max Gust Speed 21 mph    
Averages and records for this station are not official NWS values.
T = Trace of Precipitation, MM = Missing Value Source: NWS Daily Summary

Daily Weather History Graph

Daily Weather History Graph

Search for Another Location

Airport or City:

Trip Planner

Search our weather history database for the weather conditions in past years. The results will help you decide how hot, cold, wet, or windy it might be!

Date:

Astronomy

Feb. 09, 2013 Rise Set
Actual Time 6:50 AM EST 4:54 PM EST
Civil Twilight 6:19 AM EST 5:26 PM EST
Nautical Twilight 5:43 AM EST 6:01 PM EST
Astronomical Twilight 5:08 AM EST 6:36 PM EST
Moon 5:59 AM EST (2/9) 4:35 PM EST (2/9)
Length of Visible Light 11h 06m
Length of Day
10h 03m
Waning Crescent, 0% of the Moon is Illuminated
Feb 9
Waning Crescent
Feb 10
New
Feb 17
First Quarter
Feb 25
Full
Mar 4
Last Quarter

Hourly Weather History & Observations

Time (EST) Temp. Windchill Dew Point Humidity Pressure Visibility Wind Dir Wind Speed Gust Speed Precip Events Conditions
12:25 AM 4.6 °F -6.0 °F -7.2 °F 58% 30.29 in - Variable 5.8 mph 15.0 mph N/A   Unknown
1:25 AM 4.5 °F -7.6 °F -8.1 °F 56% 30.25 in - NNE 6.9 mph 18.4 mph N/A   Unknown
2:25 AM 4.5 °F -7.6 °F -8.3 °F 56% 30.23 in - NNE 6.9 mph 18.4 mph N/A   Unknown
3:25 AM 4.3 °F -7.8 °F -8.7 °F 55% 30.19 in - NNE 6.9 mph 20.7 mph N/A   Unknown
4:25 AM 3.6 °F -8.7 °F -7.8 °F 59% 30.19 in - Variable 6.9 mph 12.7 mph N/A   Unknown
5:25 AM 3.7 °F -7.1 °F -7.1 °F 61% 30.19 in - Variable 5.8 mph 16.1 mph N/A   Unknown
6:25 AM 3.9 °F -8.2 °F -6.7 °F 61% 30.20 in - Variable 6.9 mph 12.7 mph N/A   Unknown
7:26 AM 3.2 °F -9.1 °F -6.0 °F 66% 30.21 in - North 6.9 mph 17.3 mph N/A   Unknown
8:28 AM 3.0 °F -8.0 °F -2.9 °F 76% 30.20 in - Variable 5.8 mph 17.3 mph 0.01 in   Unknown
9:26 AM 4.6 °F -6.0 °F -3.3 °F 70% 30.19 in - Variable 5.8 mph 17.3 mph 0.01 in   Unknown
10:25 AM 4.6 °F -6.0 °F -0.2 °F 80% 30.19 in - Variable 5.8 mph 17.3 mph N/A   Unknown
11:25 AM 6.3 °F -4.1 °F 1.8 °F 82% 30.18 in - Variable 5.8 mph 13.8 mph 0.02 in   Unknown
12:30 PM 7.5 °F -6.9 °F 3.0 °F 82% 30.17 in - North 10.4 mph 20.7 mph 0.01 in   Unknown
1:25 PM 9.7 °F -1.3 °F 5.4 °F 83% 30.17 in - NNW 6.9 mph 16.1 mph 0.01 in   Unknown
2:26 PM 9.7 °F 1.4 °F 5.7 °F 84% 30.16 in - Variable 4.6 mph 18.4 mph 0.01 in   Unknown
3:25 PM 10.0 °F -0.9 °F 6.3 °F 85% 30.17 in - NNW 6.9 mph 17.3 mph 0.01 in   Unknown
4:25 PM 9.7 °F 1.4 °F 6.4 °F 87% 30.19 in - Variable 4.6 mph 15.0 mph 0.01 in   Unknown
5:25 PM 9.5 °F 3.0 °F 6.1 °F 86% 30.20 in - Variable 3.5 mph 11.5 mph 0.01 in   Unknown
6:25 PM 9.1 °F - 5.7 °F 86% 30.22 in - Variable 2.3 mph 12.7 mph 0.00 in   Unknown
7:25 PM 9.7 °F 1.4 °F 5.5 °F 83% 30.23 in - Variable 4.6 mph 16.1 mph 0.01 in   Unknown
8:25 PM 9.7 °F 3.2 °F 4.6 °F 80% 30.23 in - Variable 3.5 mph 13.8 mph N/A   Unknown
9:27 PM 9.3 °F 2.8 °F 3.7 °F 78% 30.23 in - Variable 3.5 mph - N/A   Unknown
10:25 PM 9.0 °F 2.4 °F 2.3 °F 74% 30.23 in - Variable 3.5 mph - 0.00 in   Unknown
11:25 PM 8.6 °F 2.0 °F 1.9 °F 74% 30.24 in - Variable 3.5 mph - N/A   Unknown